Weather observations for the past three days for
Kingman, Kingman Airport
Metric (Imperial)
Date Time (mst) Wind (kph) Vis. (km) Weather Sky Cond. Temperature (ºC) Relative Humidity Wind Chill (°C) Heat Index (°C) Pressure Precipitation (cm)
Air Dwpt 6 hour altimeter (cm) sea level (mb) 1 hr 3 hr 6 hr
Max. Min.
21 09:51 NE 11 16.09 Fair CLR 23.3 1.1 23% 76.07 1007.5
21 08:51 N 15 16.09 Fair CLR 20.6 1.1 27% 76.07 1008.3
21 07:51 N 11 16.09 Fair CLR 18.3 1.7 33% 76.05 1007.7
21 06:51 E 13 16.09 Fair CLR 16.7 1.7 37% 76.02 1007.2
21 05:51 E 15 16.09 Fair CLR 12.2 -1.7 38% 75.97 1007.2
21 04:51 NE 7 16.09 Fair CLR 12.2 -3.3 21.1 12.2 34% 75.92 1006.4
21 03:51 SE 17 16.09 Fair CLR 13.3 -3.3 32% 75.87 1005.5
21 02:51 Calm 16.09 Fair CLR 16.1 -4.4 24% 75.82 1004.5
21 01:51 SW 17 16.09 Fair CLR 16.1 -4.4 24% 75.82 1004.4
21 00:51 SW 19 16.09 Fair CLR 18.3 -4.4 21% 75.82 1004.4
20 23:51 S 22 16.09 Fair CLR 20 -5 18% 75.82 1004.0
20 22:51 S 20 16.09 Fair CLR 20.6 -5.6 27.2 17.8 17% 75.79 1003.9
20 21:51 SW 22 16.09 Fair CLR 22.8 -7.2 13% 75.82 1003.9
20 20:51 S 17 16.09 Fair CLR 19.4 -8.3 15% 75.77 1003.8
20 19:51 SW 19 16.09 Fair CLR 23.3 -7.8 12% 75.74 1003.3
20 18:51 SW 26 16.09 Fair CLR 25 -7.2 11% 25 75.72 1002.7
20 17:51 SW 30 G 46 16.09 Fair CLR 26.7 -5.6 11% 26 75.69 1002.7
20 16:51 SW 28 G 52 16.09 Fair CLR 26.7 -6.7 27.8 25 11% 26 75.74 1003.4
20 15:51 SW 39 G 56 16.09 Fair and Breezy CLR 27.2 -5.6 11% 26 75.77 1003.6
20 14:51 SW 39 G 67 16.09 Fair and Breezy CLR 27.2 -3.9 13% 26 75.82 1004.3
20 13:51 SW 39 G 76 16.09 Fair and Breezy CLR 27.2 -2.8 14% 26 75.84 1004.6
20 12:51 SW 41 G 59 16.09 Fair and Breezy CLR 26.1 -3.9 14% 25 75.84 1004.4
20 11:51 SW 43 G 65 16.09 Fair and Windy CLR 26.1 -3.3 14% 25 75.87 1004.4
20 10:51 SW 44 G 59 16.09 Fair and Windy CLR 25.6 -2.8 25.6 16.1 15% 25 75.87 1004.7
20 09:51 SW 33 G 59 16.09 Fair and Breezy CLR 24.4 -2.8 16% 24 75.87 1005.2
20 08:51 SW 35 G 56 16.09 Fair and Breezy CLR 23.9 -2.8 17% 24 75.87 1004.9
20 07:51 SW 44 G 57 16.09 Fair and Windy CLR 22.2 0 23% 75.84 1004.2
20 06:51 SW 33 G 56 16.09 Fair and Breezy CLR 21.7 -1.7 21% 75.82 1003.9
20 05:51 S 28 G 43 16.09 Fair CLR 18.9 -2.2 24% 75.79 1003.6
20 04:51 S 17 16.09 Fair CLR 17.8 -3.9 23.3 16.7 23% 75.79 1003.5
20 03:51 S 17 16.09 Fair CLR 17.2 -4.4 23% 75.77 1003.2
20 02:51 S 15 16.09 Fair CLR 18.3 -5 20% 75.74 1003.0
20 01:51 SW 11 16.09 Fair CLR 18.3 -6.1 19% 75.79 1003.5
20 00:51 S 19 16.09 Fair CLR 21.7 -7.2 14% 75.82 1003.7
19 23:51 S 26 16.09 Fair CLR 22.8 -9.4 11% 75.87 1004.2
19 22:51 Vrbl 9 16.09 Fair CLR 21.1 -10.6 30 18.3 11% 75.87 1004.5
19 21:51 E 11 16.09 Fair CLR 20 -8.9 13% 75.87 1005.1
19 20:51 S 17 16.09 Fair CLR 21.7 -10 11% 75.9 1005.2
19 19:51 S 17 16.09 Fair CLR 25 -8.9 10% 24 75.9 1004.9
19 18:51 SW 30 G 43 16.09 Fair CLR 27.8 -6.7 10% 26 75.9 1004.9
19 17:51 SW 35 G 50 16.09 Fair and Breezy CLR 28.9 -5.6 10% 27 75.9 1005.3
19 16:51 SW 39 G 61 16.09 Fair and Breezy CLR 29.4 -4.4 30.6 27.2 11% 28 75.92 1005.6
19 15:51 SW 41 G 56 16.09 Fair and Breezy CLR 30 -2.2 12% 28 75.92 1005.6
19 14:51 SW 35 G 59 16.09 Fair and Breezy CLR 30 -3.3 11% 28 76 1006.5
19 13:51 SW 41 G 54 16.09 Fair and Breezy CLR 30 -2.2 12% 28 76.05 1006.9
19 12:51 SW 39 G 56 16.09 Fair and Breezy CLR 29.4 -2.2 13% 28 76.07 1006.9
19 11:51 SW 39 G 52 16.09 Fair and Breezy CLR 28.3 -2.8 13% 27 76.12 1007.6
19 10:51 SW 28 16.09 Fair CLR 27.2 -1.7 27.2 13.9 15% 26 76.15 1008.1
19 09:51 SW 30 G 39 16.09 Fair CLR 25.6 -1.1 17% 25 76.12 1008.2
19 08:51 SW 19 16.09 Fair CLR 23.9 -0.6 20% 24 76.12 1008.2
19 07:51 Calm 16.09 Fair CLR 22.2 -1.7 20% 76.1 1007.9
19 06:51 SE 11 16.09 Fair CLR 19.4 -0.6 26% 76.07 1007.5
19 05:51 SE 19 16.09 Fair CLR 16.7 -1.7 29% 76.02 1006.9
19 04:51 SE 6 16.09 Fair CLR 14.4 -3.9 23.9 13.9 28% 76 1006.6
19 03:51 SE 15 16.09 Fair CLR 16.1 -2.8 27% 76 1006.4
19 02:51 Calm 16.09 Fair CLR 17.2 -3.3 25% 75.97 1006.0
19 01:51 SE 24 16.09 Fair CLR 21.1 -3.3 19% 75.97 1005.6
19 00:51 SW 26 16.09 Fair CLR 22.8 -2.8 18% 75.97 1005.3
18 23:51 SW 17 16.09 Fair CLR 22.8 -4.4 16% 76.02 1006.0
18 22:51 S 20 16.09 Fair CLR 23.9 -5 30.6 21.7 14% 24 76 1005.6
18 21:51 S 17 16.09 Fair CLR 22.8 -5 15% 76 1006.0
18 20:51 S 17 16.09 Fair CLR 22.8 -7.2 13% 75.97 1006.0
18 19:51 SW 15 16.09 Fair CLR 25.6 -6.1 12% 25 75.92 1005.1
18 18:51 SW 28 G 43 16.09 Fair CLR 28.3 -6.7 10% 27 75.92 1004.8
18 17:51 SW 31 G 41 16.09 Fair CLR 30 -5.6 9% 28 75.9 1004.8
18 16:51 SW 39 G 48 16.09 Fair and Breezy CLR 30.6 -4.4 32.2 28.9 10% 29 75.92 1005.1
18 15:51 W 22 G 39 16.09 Fair CLR 30.6 -3.3 11% 29 75.95 1005.5
18 14:51 SW 30 G 43 16.09 Fair CLR 31.1 -2.2 11% 29 75.97 1005.9
18 13:51 SW 39 G 50 16.09 Fair and Breezy CLR 31.1 -1.7 12% 29 76.02 1006.2
18 12:51 SW 35 G 50 16.09 Fair and Breezy CLR 31.1 -3.3 10% 29 76.05 1006.5
Date Time (mst) Wind (kph) Vis. (km) Weather Sky Cond. Air Dwpt Max. Min. Relative Humidity Wind Chill (°C) Heat Index (°C) altimeter (cm) sea level (mb) 1 hr 3 hr 6 hr
6 hour
Temperature (ºC) Pressure Precipitation (cm)